FW5122 Weather Reports


Display with metric or nautical units.
time (UTC)temp
F
wind
direction
speed
MPH
gust
MPH
rain 1hr
in
rain 24hr
in
rain mn
in
humidity
%
barometer
mb
20260509230934 87 21 5.0 10.0 0.00 0.00 0.00 52 1008.7
20260509230234 87 10 5.0 10.0 0.00 0.00 0.00 52 1008.7
20260509225534 86 11 5.0 10.0 0.00 0.00 0.00 52 1008.4
20260509224834 87 325 5.0 10.0 0.00 0.00 0.00 52 1008.7
20260509224133 87 37 5.0 10.0 0.00 0.00 0.00 53 1008.7
20260509223433 87 7 5.0 10.0 0.00 0.00 0.00 53 1008.7
20260509222733 87 10 5.0 10.0 0.00 0.00 0.00 53 1008.4
20260509222036 87 0 5.0 10.0 0.00 0.00 0.00 53 1008.4
20260509221333 88 262 5.0 10.0 0.00 0.00 0.00 53 1008.4
20260509220633 88 122 8.0 8.0 0.00 0.00 0.00 52 1008.7
20260509215934 89 83 5.0 8.0 0.00 0.00 0.00 52 1008.7
20260509215233 89 9 5.0 8.0 0.00 0.00 0.00 52 1008.7
20260509214533 90 8 2.0 8.0 0.00 0.00 0.00 52 1008.7
20260509213133 90 6 2.0 8.0 0.00 0.00 0.00 52 1008.7
20260509212433 90 74 11.0 8.0 0.00 0.00 0.00 53 1008.7
20260509211733 90 41 5.0 10.0 0.00 0.00 0.00 53 1009.1
20260509211033 90 99 8.0 10.0 0.00 0.00 0.00 54 1009.1
20260509205633 91 37 5.0 10.0 0.00 0.00 0.00 51 1009.1
20260509204933 90 345 2.0 10.0 0.00 0.00 0.00 50 1009.1
20260509204233 90 11 8.0 10.0 0.00 0.00 0.00 50 1009.4
20260509203533 90 4 5.0 10.0 0.00 0.00 0.00 50 1009.4
20260509202834 90 85 11.0 10.0 0.00 0.00 0.00 51 1009.7
20260509202133 90 2 5.0 10.0 0.00 0.00 0.00 51 1009.7
20260509201433 90 23 5.0 10.0 0.00 0.00 0.00 52 1009.7
20260509200733 89 2 5.0 10.0 0.00 0.00 0.00 51 1010.1
20260509200033 90 8 2.0 10.0 0.00 0.00 0.00 50 1010.1
20260509195333 91 28 8.0 10.0 0.00 0.00 0.00 51 1009.7
20260509194633 90 8 11.0 10.0 0.00 0.00 0.00 53 1010.1
20260509193233 90 5 2.0 10.0 0.00 0.00 0.00 53 1010.1
20260509192533 90 358 5.0 10.0 0.00 0.00 0.00 54 1010.1
20260509191833 90 10 2.0 10.0 0.00 0.00 0.00 54 1010.4
20260509191133 89 20 8.0 8.0 0.00 0.00 0.00 55 1010.1
20260509190433 89 358 2.0 8.0 0.00 0.00 0.00 56 1010.1
20260509185733 89 9 5.0 8.0 0.00 0.00 0.00 57 1010.4
20260509185033 88 1 5.0 8.0 0.00 0.00 0.00 57 1010.4
20260509184333 87 8 5.0 8.0 0.00 0.00 0.00 58 1010.4
20260509183633 87 359 8.0 8.0 0.00 0.00 0.00 59 1010.4
20260509182933 87 347 5.0 8.0 0.00 0.00 0.00 61 1010.4
20260509182233 87 31 5.0 8.0 0.00 0.00 0.00 61 1010.4
20260509181533 87 298 8.0 8.0 0.00 0.00 0.00 61 1010.7
20260509180833 87 9 5.0 6.0 0.00 0.00 0.00 61 1010.4
20260509174733 87 8 2.0 8.0 0.00 0.00 0.00 61 1010.7
20260509174033 86 16 5.0 8.0 0.00 0.00 0.00 61 1011.1
20260509173333 86 7 2.0 8.0 0.00 0.00 0.00 62 1011.1
20260509172635 87 9 2.0 8.0 0.00 0.00 0.00 61 1011.1
20260509171932 86 5 5.0 8.0 0.00 0.00 0.00 62 1011.1
20260509171233 85 10 2.0 8.0 0.00 0.00 0.00 63 1011.1
20260509170532 85 20 5.0 8.0 0.00 0.00 0.00 62 1011.4
20260509165833 86 354 8.0 8.0 0.00 0.00 0.00 63 1011.1
20260509165133 86 353 0.0 8.0 0.00 0.00 0.00 63 1011.1
20260509163733 85 2 8.0 10.0 0.00 0.00 0.00 65 1011.4
20260509163033 84 2 5.0 10.0 0.00 0.00 0.00 64 1011.1
20260509162333 84 12 2.0 10.0 0.00 0.00 0.00 66 1011.4
20260509161633 84 6 2.0 10.0 0.00 0.00 0.00 65 1011.1
20260509160932 83 1 2.0 10.0 0.00 0.00 0.00 66 1011.1
20260509160233 82 1 2.0 10.0 0.00 0.00 0.00 67 1011.1
20260509155532 82 35 5.0 10.0 0.00 0.00 0.00 67 1011.4
20260509154833 81 352 5.0 10.0 0.00 0.00 0.00 69 1011.1
20260509154132 80 4 14.0 10.0 0.00 0.00 0.00 70 1011.1
20260509152732 79 4 5.0 6.0 0.00 0.00 0.00 73 1011.4
20260509152033 78 7 0.0 6.0 0.00 0.00 0.00 74 1011.1
20260509150632 77 339 8.0 6.0 0.00 0.00 0.00 75 1011.1
20260509145932 77 2 5.0 8.0 0.00 0.00 0.00 76 1011.1
20260509143832 76 8 5.0 8.0 0.00 0.00 0.00 79 1011.4
20260509143132 75 358 0.0 8.0 0.00 0.00 0.00 79 1011.1
20260509142432 75 355 5.0 8.0 0.00 0.00 0.00 81 1011.4
20260509141032 74 8 2.0 8.0 0.00 0.00 0.00 81 1011.1
20260509140333 73 17 5.0 6.0 0.00 0.00 0.00 82 1011.4
20260509135632 73 2 0.0 6.0 0.00 0.00 0.00 82 1011.1
20260509134933 73 352 5.0 6.0 0.00 0.00 0.00 82 1011.4
20260509134232 73 348 5.0 6.0 0.00 0.00 0.00 83 1011.1
20260509133532 73 1 2.0 6.0 0.00 0.00 0.00 83 1010.7
20260509132132 72 7 5.0 6.0 0.00 0.00 0.00 83 1011.1
20260509131432 72 319 5.0 6.0 0.00 0.00 0.00 83 1010.7
20260509130732 71 354 2.0 6.0 0.00 0.00 0.00 83 1011.1
20260509130031 72 1 0.0 6.0 0.00 0.00 0.00 83 1010.7
20260509125531 72 4 2.0 6.0 0.00 0.00 0.00 83 1010.7
20260509124831 71 5 0.0 6.0 0.00 0.00 0.00 84 1010.7
20260509124132 71 358 2.0 6.0 0.00 0.00 0.00 84 1010.7
20260509122732 71 0 0.0 6.0 0.00 0.00 0.00 86 1010.7
20260509122031 70 9 2.0 6.0 0.00 0.00 0.00 87 1010.4
20260509120632 70 6 0.0 4.0 0.00 0.00 0.00 88 1010.7
20260509115931 69 6 2.0 4.0 0.00 0.00 0.00 88 1010.4
20260509113831 70 10 2.0 4.0 0.00 0.00 0.00 88 1010.1
20260509113131 70 11 0.0 4.0 0.00 0.00 0.00 88 1010.1
20260509111731 70 14 2.0 4.0 0.00 0.00 0.00 88 1009.7
20260509111031 70 14 0.0 4.0 0.00 0.00 0.00 88 1009.7
20260509110331 70 15 5.0 4.0 0.00 0.00 0.00 88 1009.4
20260509105631 70 30 2.0 4.0 0.00 0.00 0.00 88 1009.7
20260509104932 70 11 0.0 4.0 0.00 0.00 0.00 87 1009.7
20260509103531 70 12 0.0 4.0 0.00 0.00 0.00 88 1009.7
20260509102131 70 11 0.0 4.0 0.00 0.00 0.00 88 1009.7
20260509101431 70 11 0.0 4.0 0.00 0.00 0.00 88 1009.4
20260509095331 70 356 5.0 8.0 0.00 0.00 0.00 88 1009.4
20260509094631 70 346 5.0 10.0 0.00 0.00 0.00 88 1009.1
20260509093231 69 357 2.0 10.0 0.00 0.00 0.00 87 1008.7
20260509092531 69 13 0.0 10.0 0.00 0.00 0.00 87 1007.7
20260509091831 69 39 5.0 10.0 0.00 0.00 0.00 87 1007.7
20260509090431 69 10 2.0 10.0 0.00 0.00 0.00 86 1007.4
20260509085731 69 6 0.0 10.0 0.00 0.00 0.00 86 1007.7
20260509085031 70 127 8.0 10.0 0.00 0.00 0.00 85 1007.4
20260509083632 70 20 8.0 10.0 0.00 0.00 0.00 85 1008.4
20260509082931 70 23 8.0 8.0 0.00 0.00 0.00 85 1008.7
20260509082231 70 23 2.0 4.0 0.00 0.00 0.00 85 1009.4
20260509080831 71 11 0.0 4.0 0.00 0.00 0.00 85 1009.7
20260509080131 71 22 2.0 4.0 0.00 0.00 0.00 84 1010.4
20260509075431 71 13 0.0 4.0 0.00 0.00 0.00 84 1010.4
20260509074731 71 20 0.0 4.0 0.00 0.00 0.00 84 1010.4
20260509074031 71 8 2.0 4.0 0.00 0.00 0.00 85 1010.7
20260509073331 71 14 0.0 4.0 0.00 0.00 0.00 85 1010.7
20260509072631 71 7 0.0 4.0 0.00 0.00 0.00 86 1011.1
20260509071931 70 3 2.0 4.0 0.00 0.00 0.00 86 1011.4
20260509071231 70 9 2.0 2.0 0.00 0.00 0.00 85 1011.4
20260509065831 69 12 0.0 2.0 0.00 0.00 0.00 84 1011.1
20260509065133 70 12 0.0 2.0 0.00 0.00 0.00 84 1010.7
20260509064431 70 13 0.0 2.0 0.00 0.00 0.00 83 1010.7
20260509063730 70 9 0.0 2.0 0.00 0.00 0.00 83 1011.1
20260509063031 70 9 0.0 2.0 0.00 0.00 0.00 83 1011.1
20260509062330 70 13 0.0 2.0 0.00 0.00 0.00 82 1011.1
20260509061630 70 13 0.0 2.0 0.00 0.00 0.00 82 1011.4
20260509060231 71 12 0.0 2.0 0.00 0.00 0.00 82 1011.8
20260509055531 71 12 0.0 2.0 0.00 0.00 0.00 81 1011.4
20260509054830 71 12 0.0 2.0 0.00 0.00 0.00 81 1011.8
20260509054131 71 11 0.0 2.0 0.00 0.00 0.00 81 1012.1
20260509053430 71 8 0.0 4.0 0.00 0.00 0.00 81 1011.8
20260509050631 72 9 0.0 6.0 0.00 0.00 0.00 79 1010.7
20260509045931 72 10 0.0 6.0 0.00 0.00 0.00 79 1011.1
20260509045231 72 5 0.0 6.0 0.00 0.00 0.00 79 1011.1
20260509044530 72 64 5.0 6.0 0.00 0.00 0.00 79 1010.4
20260509043830 72 9 0.0 6.0 0.00 0.00 0.00 78 1010.4
20260509041730 73 11 2.0 4.0 0.00 0.00 0.00 78 1011.1
20260509040330 73 5 0.0 4.0 0.00 0.00 0.00 78 1011.4
20260509034931 73 8 0.0 4.0 0.00 0.00 0.00 77 1011.1
20260509034230 73 16 0.0 4.0 0.00 0.00 0.00 77 1010.7
20260509033535 73 42 5.0 4.0 0.00 0.00 0.00 77 1010.4
20260509032830 73 9 0.0 4.0 0.00 0.00 0.00 77 1010.7
20260509031431 72 9 0.0 4.0 0.00 0.00 0.00 77 1010.4
20260509030730 72 10 0.0 4.0 0.00 0.00 0.00 77 1010.4
20260509030031 72 10 0.0 8.0 0.00 0.00 0.00 77 1010.1
20260509025330 72 9 0.0 8.0 0.00 0.00 0.00 76 1010.1
20260509024630 72 18 2.0 8.0 0.00 0.00 0.00 76 1010.1
20260509023930 72 10 2.0 8.0 0.00 0.00 0.00 76 1010.1
20260509023230 72 20 0.0 8.0 0.00 0.00 0.00 75 1009.7
20260509022530 72 8 0.0 8.0 0.00 0.00 0.00 75 1010.1
20260509021830 72 12 2.0 8.0 0.00 0.00 0.00 75 1009.7
20260509020430 73 77 2.0 6.0 0.00 0.00 0.00 75 1009.7
20260509015730 73 11 2.0 6.0 0.00 0.00 0.00 75 1009.7
20260509015030 73 15 2.0 6.0 0.00 0.00 0.00 74 1009.7
20260509014330 73 7 2.0 6.0 0.00 0.00 0.00 74 1009.7
20260509013630 73 15 0.0 6.0 0.00 0.00 0.00 74 1010.1
20260509012930 73 92 5.0 6.0 0.00 0.00 0.00 74 1009.7
20260509012230 73 26 2.0 6.0 0.00 0.00 0.00 74 1009.7
20260509011530 73 30 0.0 6.0 0.00 0.00 0.00 74 1009.4
20260509010832 73 14 2.0 6.0 0.00 0.00 0.00 73 1009.1
20260509010132 73 13 2.0 6.0 0.00 0.00 0.00 73 1009.1
20260509005432 73 11 2.0 6.0 0.00 0.00 0.00 73 1009.1
20260509004732 73 50 5.0 14.0 0.00 0.00 0.00 72 1009.1
20260509002632 74 13 2.0 14.0 0.00 0.00 0.00 72 1009.1
20260509001932 74 29 2.0 14.0 0.00 0.00 0.00 72 1009.1
20260509001232 74 82 5.0 14.0 0.00 0.00 0.00 71 1009.1
20260509000532 74 14 2.0 14.0 0.00 0.00 0.00 71 1009.1
20260508235832 74 78 8.0 8.0 0.00 0.00 0.00 71 1009.4
20260508235132 74 31 2.0 8.0 0.00 0.00 0.00 71 1009.4
20260508234432 74 117 8.0 10.0 0.00 0.00 0.00 70 1009.4
20260508233032 74 0 5.0 12.0 0.00 0.00 0.00 70 1009.4
20260508232332 74 14 2.0 12.0 0.00 0.00 0.00 70 1009.4
20260508231632 74 53 2.0 12.0 0.00 0.00 0.00 69 1009.1